This is the latest recevied weather packets stored in our database for station/object WP3OF-2. If no packets are shown the sender has not sent any weather packets the latest 10 day(s).
| Time | Temp. | Humidity | Pressure | Rain* | Wind** | Luminosity | Snow |
|---|---|---|---|---|---|---|---|
| 1788301508 | 21.11° C | 92% | 1026 hPa | 0 mm | - | 13 W/m² | - |
| 1788301204 | 21.11° C | 91% | 1026 hPa | 0 mm | - | 17 W/m² | - |
| 1788300899 | 21.67° C | 91% | 1026 hPa | 0 mm | - | 24 W/m² | - |
| 1788300594 | 21.67° C | 91% | 1026 hPa | 0 mm | - | 30 W/m² | - |
| 1788300253 | 21.67° C | 89% | 1025.6 hPa | 0 mm | - | 84 W/m² | - |
| 1788299956 | 21.67° C | 89% | 1025.6 hPa | 0 mm | - | 84 W/m² | - |
| 1788299651 | 21.67° C | 89% | 1025.6 hPa | 0 mm | - | 89 W/m² | - |
| 1788299350 | 21.67° C | 86% | 1025.6 hPa | 0 mm | - | 123 W/m² | - |
| 1788299049 | 21.67° C | 87% | 1025.6 hPa | 0 mm | - | 140 W/m² | - |
| 1788298757 | 21.67° C | 87% | 1025.6 hPa | 0 mm | - | 67 W/m² | - |
| 1788298443 | 21.67° C | 87% | 1025.6 hPa | 0 mm | - | 67 W/m² | - |
| 1788298142 | 21.67° C | 89% | 1025.6 hPa | 0 mm | - | 85 W/m² | - |
| 1788297535 | 21.11° C | 93% | 1025.6 hPa | 0 mm | - | 217 W/m² | - |
| 1788297230 | 21.11° C | 93% | 1025.6 hPa | 0 mm | - | 217 W/m² | - |
| 1788296925 | 21.11° C | 94% | 1025.6 hPa | 0 mm | - | 237 W/m² | - |
| 1788296294 | 20.56° C | 97% | 1026 hPa | 0 mm | - | 129 W/m² | - |
| 1788295994 | 20.56° C | 97% | 1026 hPa | 0 mm | - | 129 W/m² | - |
| 1788295689 | 20° C | 97% | 1025.6 hPa | 0 mm | - | 118 W/m² | - |
| 1788295386 | 20.56° C | 98% | 1026 hPa | 0 mm | - | 115 W/m² | - |
| 1788295085 | 20° C | 97% | 1026 hPa | 1.78 mm | - | 116 W/m² | - |
| 1788294780 | 20° C | 97% | 1025.6 hPa | 0 mm | - | 104 W/m² | - |
| 1788294474 | 19.44° C | 98% | 1026 hPa | 0 mm | - | 98 W/m² | - |
| 1788294169 | 19.44° C | 99% | 1026 hPa | 0 mm | - | 71 W/m² | - |
| 1788293865 | 19.44° C | 99% | 1026 hPa | 0 mm | - | 65 W/m² | - |
| 1788293582 | 18.89° C | 99% | 1026 hPa | 0 mm | - | 59 W/m² | - |
* Rain latest hour (hover to see other rain measurements)
** Current wind speed in m/s (hover to see current wind gust speed)